Location: Champs
(48.8539°N, 2.6040°E)
Time: 00:27:27
(UTC+00:00)

USA 308 - Pass Details

Date: 03 June 2022
Orbit: 549 x 558 km, 54.0° (Epoch: 14 June)

Event Time Altitude Azimuth Distance (km) Brightness Sun altitude
Rises 01:44:57 0° 289° (WNW) 2,739 6.3 -14.2°
Reaches altitude 10° 01:47:16 10° 296° (WNW) 1,845 5.5 -14.0°
Maximum altitude 01:51:18 44° 10° (N) 781 4.1 -13.7°
Drops below altitude 10° 01:55:20 10° 83° (E) 1,848 6.0 -13.4°
Sets 01:57:39 0° 90° (E) 2,744 6.8 -13.2°
